[Iaude] MPEC B09: 2013 UL15 [a=45.58,e=0.10,i=2.0,H=6.7]

mpec at si.edu mpec at si.edu
Wed Jan 18 10:45:43 EST 2017


M.P.E.C. 2017-B09                                Issued 2017 Jan. 18, 15:41 UT
 
     The Minor Planet Electronic Circulars contain information on unusual
         minor planets and routine data on comets.  They are published
    on behalf of Division F of the International Astronomical Union by the
          Minor Planet Center, Smithsonian Astrophysical Observatory,
                          Cambridge, MA 02138, U.S.A.

             Prepared using the Tamkin Foundation Computer Network

                              MPC at CFA.HARVARD.EDU
            URL http://www.minorplanetcenter.net/    ISSN 1523-6714


                                   2013 UL15
 
Observations:
     K13U15L @C2013 08 02.50467 00 56 55.772+04 01 16.24         23.1 rqEB009568
     K13U15L @C2013 08 02.54741 00 56 55.712+04 01 15.77         23.1 rqEB009568
     K13U15L @C2013 08 11.50367 00 56 40.459+03 59 18.93         23.0 rqEB009568
     K13U15L @C2013 08 30.42008 00 55 49.674+03 53 24.16         23.0 rqEB009568
     K13U15L @C2013 08 31.42413 00 55 46.354+03 53 01.80         22.8 rqEB009568
     K13U15L @C2013 08 31.46730 00 55 46.204+03 53 00.79         22.9 rqEB009568
     K13U15L @C2013 09 04.40430 00 55 32.692+03 51 30.26         23.0 rqEB009568
     K13U15L @C2013 09 04.44707 00 55 32.539+03 51 29.21         22.9 rqEB009568
     K13U15L @C2013 10 05.37122 00 53 26.332+03 37 56.92         22.9 rqEB009568
     K13U15L @C2013 10 05.37632 00 53 26.306+03 37 56.81         22.9 rqEB009568
     K13U15L @C2013 10 06.37972 00 53 21.900+03 37 29.25         22.9 rqEB009568
     K13U15L @C2013 10 06.44410 00 53 21.609+03 37 27.52         22.7 rqEB009568
     K13U15L @C2013 10 09.50414 00 53 08.156+03 36 03.80         22.9 rqEB009568
     K13U15L @C2013 10 09.50879 00 53 08.142+03 36 03.77         22.8 rqEB009568
     K13U15L*@C2013 10 31.22708 00 51 36.341+03 26 46.30         22.9 rqEB009568
     K13U15L @C2013 10 31.27019 00 51 36.159+03 26 45.31         23.2 rqEB009568
     K13U15L @C2013 10 31.31297 00 51 35.992+03 26 44.38         23.0 rqEB009568
     K13U15L @C2013 11 01.25343 00 51 32.303+03 26 22.58         23.2 rqEB009568
     K13U15L @C2013 11 01.37273 00 51 31.831+03 26 19.89         22.8 rqEB009568
     K13U15L @C2013 11 02.20394 00 51 28.594+03 26 00.79         23.5 rqEB009568
     K13U15L @C2013 11 02.22554 00 51 28.536+03 26 00.44         23.1 rqEB009568
     K13U15L @C2013 11 02.24797 00 51 28.448+03 25 59.71         23.2 rqEB009568
     K13U15L @C2013 11 02.26953 00 51 28.346+03 25 59.38               qEB009568
     K13U15L @C2013 11 02.29201 00 51 28.279+03 25 58.85         23.2 rqEB009568
     K13U15L @C2013 11 05.25599 00 51 17.034+03 24 52.63         22.9 rqEB009568
     K13U15L @C2013 11 05.37780 00 51 16.554+03 24 50.21               qEB009568
     K13U15L @C2013 11 06.34704 00 51 12.994+03 24 28.87         22.6 rqEB009568
     K13U15L @C2013 11 06.39952 00 51 12.772+03 24 28.10         22.7 rqEB009568
     K13U15L @C2013 11 06.40464 00 51 12.755+03 24 27.94         22.7 rqEB009568
     K13U15L @C2013 11 07.43574 00 51 08.986+03 24 06.15         22.7 rqEB009568
     K13U15L @C2013 11 29.21607 00 50 03.750+03 18 04.21         23.2 rqEB009568
     K13U15L @C2013 12 04.24324 00 49 53.284+03 17 11.96         22.9 rqEB009568
     K13U15L @C2013 12 04.29069 00 49 53.193+03 17 11.65         22.5 rqEB009568
     K13U15L @C2013 12 05.31529 00 49 51.295+03 17 02.59         22.9 rqEB009568
     K13U15L @C2014 06 27.57448 01 01 38.153+04 33 23.61         23.3 rqEB009568
     K13U15L @C2014 06 28.57952 01 01 39.882+04 33 31.68         23.1 rqEB009568
     K13U15L @C2014 07 23.55193 01 01 55.603+04 34 03.45         23.4 rqEB009568
     K13U15L @C2014 07 27.53111 01 01 53.294+04 33 38.72         23.2 rqEB009568
     K13U15L @C2014 08 28.45040 01 00 50.412+04 25 57.88         22.8 rqEB009568
     K13U15L @C2014 10 23.27749 00 57 04.690+04 02 07.00         22.9 rqEB009568
     K13U15L @C2014 10 23.33112 00 57 04.452+04 02 05.57         22.8 rqEB009568
     K13U15L @C2014 10 23.38450 00 57 04.217+04 02 04.27         22.9 rqEB009568
     K13U15L @C2014 10 25.25487 00 56 56.357+04 01 17.02         22.9 rqEB009568
     K13U15L @C2014 10 25.34568 00 56 55.969+04 01 14.59         22.9 rqEB009568
     K13U15L @C2014 10 25.35645 00 56 55.919+04 01 14.48         22.8 rqEB009568
     K13U15L @C2014 10 25.45680 00 56 55.500+04 01 11.98         22.9 rqEB009568
     K13U15L @C2014 10 27.24490 00 56 48.086+04 00 27.67         23.2 rqEB009568
     K13U15L @C2014 10 27.30309 00 56 47.838+04 00 26.20         23.1 rqEB009568
     K13U15L @C2014 10 27.36937 00 56 47.548+04 00 24.55         22.9 rqEB009568
     K13U15L @C2014 10 29.25791 00 56 39.827+03 59 38.52         22.8 rqEB009568
     K13U15L @C2014 11 19.27463 00 55 23.826+03 52 20.65         23.0 rqEB009568
     K13U15L @C2014 12 17.32324 00 54 26.234+03 47 34.77         22.8 rqEB009568
     K13U15L @C2015 01 17.26407 00 54 39.788+03 50 35.82         22.9 rqEB009568
 
Observer details:
568 Mauna Kea.  Observers M. T. Bannister, J. J. Kavelaars, B. J. Gladman,
    J.-M. Petit, T. Burdullis.  Measurers S. D. J. Gwyn, Y.-T. Chen.  3.6-m
    Canada-France-Hawaii Telescope + CCD.
 
Orbital elements:
2013 UL15
Epoch 2017 Feb. 16.0 TT = JDT 2457800.5                 MPC
M  53.80168              (2000.0)            P               Q
n   0.00320308     Peri.  232.82761     +0.70309327     +0.71023643
a  45.5782501      Node    81.88782     -0.64070622     +0.65407021
e   0.0960636      Incl.    2.02527     -0.30847267     +0.26030054
P 308              H    6.7           G   0.15           U   4
Residuals in seconds of arc
130802 568  0.0   0.0     131101 568  0.1-  0.1+    140723 568  0.0   0.0
130802 568  0.0   0.0     131102 568  0.4-  0.0     140727 568  0.1+  0.1-
130811 568  0.2+  0.1-    131102 568  0.0   0.2+    140828 568  0.0   0.0
130830 568  0.1+  0.0     131102 568  0.0   0.1-    141023 568  0.1+  0.0
130831 568  0.0   0.0     131102 568  0.3-  0.1+    141023 568  0.0   0.0
130831 568  0.1-  0.0     131102 568  0.1+  0.1+    141023 568  0.1-  0.0
130904 568  0.0   0.0     131105 568  0.2+  0.2-    141025 568  0.0   0.0
130904 568  0.0   0.0     131105 568  0.0   0.1+    141025 568  0.0   0.1-
131005 568  0.0   0.0     131106 568  0.4+  0.4-    141025 568  0.1-  0.0
131005 568  0.0   0.0     131106 568  0.0   0.0     141025 568  0.1+  0.0
131006 568  0.0   0.0     131106 568  0.0   0.1-    141027 568  0.1+  0.1+
131006 568  0.0   0.0     131107 568  0.0   0.0     141027 568  0.1+  0.1+
131009 568  0.1-  0.1-    131129 568  0.1+  0.0     141027 568  0.1-  0.0
131009 568  0.0   0.0     131204 568  0.0   0.0     141029 568  0.0   0.0
131031 568  0.1+  0.0     131204 568  0.1+  0.1+    141119 568  0.0   0.0
131031 568  0.1-  0.0     131205 568  0.1-  0.1+    141217 568  0.0   0.2-
131031 568  0.0   0.1+    140627 568  0.1-  0.0     150117 568  0.0   0.0
131101 568  0.1-  0.1+    140628 568  0.0   0.0

Ephemeris:
2013 UL15                a,e,i = 45.58, 0.10, 2                  q = 41.200
Date    TT    R. A. (2000) Decl.     Delta      r     Elong.  Phase     V
2016 12 19    01 04 02.3 +04 49 56  42.9417 43.2772   109.3     1.2    23.2
...
2017 01 03    01 03 57.6 +04 50 13  43.2003 43.2805    94.0     1.3    23.2
...
2017 01 11    01 04 03.4 +04 51 13  43.3413 43.2822    85.9     1.3    23.2
...
2017 01 17    01 04 11.4 +04 52 20  43.4463 43.2835    79.8     1.3    23.3
2017 01 18    01 04 13.0 +04 52 34  43.4636 43.2838    78.8     1.3    23.3
2017 01 19    01 04 14.7 +04 52 47  43.4809 43.2840    77.8     1.3    23.3
...
2017 01 25    01 04 26.9 +04 54 20  43.5831 43.2853    71.8     1.2    23.3
...
2017 02 02    01 04 47.8 +04 56 52  43.7140 43.2870    63.7     1.2    23.3
...
2017 02 17    01 05 40.1 +05 02 53  43.9346 43.2903    48.8     1.0    23.2

A. U. Tomatic                (C) Copyright 2017 MPC           M.P.E.C. 2017-B09




More information about the Iaude mailing list